Вернуться в каталог

AMAZONAS 2

АктивенСвязьGEO
NORAD 35942·PAYLOAD·🇧🇷 Brazil

Запущен Sep 30, 2009 с Guiana Space Centre

Loading…

TLE

СвежийSource: Space-Track

Эпоха: Sep 14, 2026, 11:44 UTC

1 35942U 09054A   26257.48955277 -.00000267  00000-0  00000-0 0  9996
2 35942   2.0401  81.7982 0003281  84.0790 291.8262  1.00273497 62088

Отслеживайте AMAZONAS 2 в реальном времени с AllMySat

Download on the App Store